Regional Weather Roundup
Issued by NWS Cleveland, OH

Home | Current Version | Previous Version | Graphics & Text | Print | Product List | Glossary On
Versions: 1 2 3 4 5 6 7 8 9 10 11 12 13 14 15 16 17 18 19 20 21 22 23 24 25 26 27 28 29 30 31 32 33 34 35 36 37 38 39 40 41 42 43 44 45 46 47 48 49 50
000
ASUS41 KCLE 240410
RWRCLE
OHIO REGIONAL WEATHER ROUNDUP
NATIONAL WEATHER SERVICE WILMINGTON, OH
1200 AM EDT THU AUG 24 2017

NOTE: "FAIR" INDICATES FEW OR NO CLOUDS BELOW 12,000 FEET WITH NO
SIGNIFICANT WEATHER AND/OR OBSTRUCTIONS TO VISIBILITY.

OHZ001>008-015>018-024>027-034-035-043-044-240500-
   NORTHWEST OHIO

CITY           SKY/WX    TMP DP  RH WIND       PRES   REMARKS
DEFIANCE       FAIR      59  50  72 CALM      30.02R
FINDLAY        FAIR      61  50  67 W5        30.00R
TOLEDO EXPRESS FAIR      60  53  77 W5        29.99S
TOLEDO EXEC    FAIR      60  53  77 NW6       29.99S
LIMA           FAIR      59  53  80 NW7       30.02R
$$

OHZ009>014-019>023-028>033-038-089-240500-
   NORTHEAST OHIO

CITY           SKY/WX    TMP DP  RH WIND       PRES   REMARKS
CLE-HOPKINS    FAIR      68  57  68 CALM      29.98R
CLE-LAKEFRONT  MOCLDY    68  55  63 S5        29.95S
CUY CO. ARPT   NOT AVBL
LORAIN-ELYRIA  CLOUDY    62  55  77 W5        29.97S
ASHTABULA      FAIR      56  56 100 CALM      29.98S
AKRON-CANTON   FAIR      63  54  72 W3        29.98S
WOOSTER        FAIR      55  54  96 CALM      29.99S
MANSFIELD      FAIR      62  53  72 W6        30.00R
YOUNGSTOWN     FAIR      56  54  93 CALM      29.97S
$$

OHZ042-051>053-060>062-070>072-077>081-240500-
  SOUTHWEST OHIO

CITY           SKY/WX    TMP DP  RH WIND       PRES   REMARKS
CINC-COVINGTON FAIR      66  54  65 N8        30.02R
CINC-LUNKEN    FAIR      60  58  92 CALM      30.02R
HAMILTON       FAIR      58  56  93 CALM      30.03R
DAYTON         FAIR      61  52  72 NW7       30.03R
WRIGHT-PAT AFB FAIR      65  53  67 NW5       30.01R
DAYTON GENERAL FAIR      65  52  62 N7        30.02R
WILMINGTON     FAIR      65  54  67 NW5       30.02R
$$

OHZ036-037-039>041-045>050-054>059-063>069-073>076-082>088-240500-
  CENTRAL AND SOUTHEAST OHIO

CITY           SKY/WX    TMP DP  RH WIND       PRES   REMARKS
COLUMBUS       FAIR      64  56  75 CALM      29.99R
OSU AIRPORT    FAIR      61  56  83 W7        30.00R
BOLTON FIELD   FAIR      60  55  84 W6        30.01R
RICKENBACK AFB FAIR      60  56  85 CALM      29.99S
NEWARK         MOCLDY    60  58  92 CALM      29.99R
MARION         FAIR      61  52  72 NW5       30.01R
LANCASTER      FAIR      56  55  97 CALM      30.00R
ZANESVILLE     FAIR      60  57  89 CALM      29.99R
NEW PHILLY     MOCLDY    60  58  92 CALM      29.99S
$$




USA.gov is the U.S. government's official web portal to all federal, state and local government web resources and services.